Rockford, IL

5:33 AM CDT on May 25, 2017 (GMT -0500)
Greater Rockford

Weather History for KRFD - July, 2012

Change the Weather History Date:

Monday, July 16, 2012

  Actual Average Record
Temperature  
Mean Temperature 85 °F 74 °F  
Max Temperature 98 °F 85 °F 100 °F (1936)
Min Temperature 71 °F 63 °F 46 °F (1945)
Degree Days  
Heating Degree Days 0 0  
Month to date heating degree days 0 0  
Since 1 June heating degree days 14 31  
Since 1 July heating degree days 0 0  
Cooling Degree Days 20 9  
Month to date cooling degree days 281 144  
Year to date cooling degree days 687 374  
Since 1 June cooling degree days 536 319  
Growing Degree Days 34 (Base 50)    
Moisture  
Dew Point 67 °F    
Average Humidity 62    
Maximum Humidity 90    
Minimum Humidity 33    
Precipitation  
Precipitation 0.00 in 0.13 in 1.85 in (1943)
Month to date precipitation 0.17 2.01  
Year to date precipitation 11.21 19.13  
Snow  
Snow 0.00 in 0.00 in 0.00 in ()
Month to date snowfall 0.0 0.0  
Since 1 June snowfall 0.0 0.0  
Since 1 July snowfall 0.0 0.0  
Snow Depth 0.00 in    
Sea Level Pressure  
Sea Level Pressure 29.93 in    
Wind  
Wind Speed 7 mph (SSW)    
Max Wind Speed 20 mph    
Max Gust Speed 28 mph    
Visibility 10 miles    
Events      
T = Trace of Precipitation, MM = Missing Value Source: NWS Daily Summary

Daily Weather History Graph

Daily Weather History Graph

Search for Another Location

Airport or City:

Trip Planner

Search our weather history database for the weather conditions in past years. The results will help you decide how hot, cold, wet, or windy it might be!

Date:

Astronomy

Jul. 16, 2012 Rise Set
Actual Time 5:34 AM CDT 8:29 PM CDT
Civil Twilight 5:01 AM CDT 9:03 PM CDT
Nautical Twilight 4:19 AM CDT 9:45 PM CDT
Astronomical Twilight 3:29 AM CDT 10:34 PM CDT
Moon 3:18 AM CDT (7/16) 6:35 PM CDT (7/16)
Length of Visible Light 16h 01m
Length of Day
14h 55m
Waning Crescent, 6% of the Moon is Illuminated
Jul 16
Waning Crescent
Jul 18
New
Jul 26
First Quarter
Aug 1
Full
Aug 9
Last Quarter

Hourly Weather History & Observations

Time (CDT) Temp. Heat Index Dew Point Humidity Pressure Visibility Wind Dir Wind Speed Gust Speed Precip Events Conditions
12:54 AM 75.9 °F - 69.1 °F 79% 30.01 in 10.0 mi South 3.5 mph - N/A   Scattered Clouds
1:54 AM 75.0 °F - 69.1 °F 82% 30.01 in 10.0 mi Calm Calm - N/A   Scattered Clouds
2:54 AM 75.0 °F - 69.1 °F 82% 29.99 in 10.0 mi Calm Calm - N/A   Scattered Clouds
3:54 AM 72.0 °F - 68.0 °F 87% 29.99 in 8.0 mi South 3.5 mph - N/A   Scattered Clouds
4:54 AM 73.0 °F - 69.1 °F 87% 29.99 in 7.0 mi South 3.5 mph - N/A   Mostly Cloudy
5:54 AM 72.0 °F - 68.0 °F 87% 29.99 in 6.0 mi South 3.5 mph - N/A   Mostly Cloudy
6:54 AM 75.0 °F - 69.1 °F 82% 29.99 in 7.0 mi Calm Calm - N/A   Overcast
7:54 AM 79.0 °F - 69.1 °F 72% 29.99 in 10.0 mi Variable 3.5 mph - N/A   Mostly Cloudy
8:54 AM 86.0 °F 88.8 °F 66.9 °F 53% 29.99 in 10.0 mi SW 6.9 mph - N/A   Scattered Clouds
9:54 AM 90.0 °F 93.6 °F 68.0 °F 48% 29.99 in 10.0 mi SSW 9.2 mph - N/A   Partly Cloudy
10:54 AM 93.0 °F 94.6 °F 64.0 °F 38% 29.98 in 10.0 mi WSW 9.2 mph - N/A   Partly Cloudy
11:54 AM 95.0 °F 97.0 °F 64.0 °F 36% 29.96 in 10.0 mi SSW 10.4 mph - N/A   Partly Cloudy
12:54 PM 96.1 °F 96.9 °F 62.1 °F 32% 29.95 in 10.0 mi SW 12.7 mph 19.6 mph N/A   Scattered Clouds
1:54 PM 96.1 °F 98.3 °F 64.0 °F 35% 29.92 in 10.0 mi SW 11.5 mph 18.4 mph N/A   Scattered Clouds
2:54 PM 97.0 °F 97.8 °F 62.1 °F 31% 29.90 in 10.0 mi WSW 11.5 mph - N/A   Scattered Clouds
3:54 PM 97.0 °F 99.9 °F 64.9 °F 35% 29.88 in 10.0 mi SSW 13.8 mph 20.7 mph N/A   Partly Cloudy
4:54 PM 96.1 °F 96.9 °F 62.1 °F 32% 29.86 in 10.0 mi SW 13.8 mph 23.0 mph N/A   Partly Cloudy
5:54 PM 95.0 °F 96.0 °F 63.0 °F 34% 29.85 in 10.0 mi WSW 11.5 mph - N/A   Partly Cloudy
6:54 PM 93.9 °F 95.6 °F 64.0 °F 37% 29.83 in 10.0 mi WSW 10.4 mph - N/A   Clear
7:54 PM 90.0 °F 92.4 °F 66.0 °F 45% 29.84 in 10.0 mi SW 5.8 mph - N/A   Clear
8:54 PM 84.9 °F 88.2 °F 68.0 °F 57% 29.84 in 10.0 mi SSW 6.9 mph - N/A   Clear
9:54 PM 82.0 °F 85.5 °F 69.1 °F 65% 29.85 in 10.0 mi South 8.1 mph - N/A   Clear
10:54 PM 81.0 °F 84.4 °F 70.0 °F 69% 29.85 in 10.0 mi SSW 6.9 mph - N/A   Clear
11:54 PM 79.0 °F - 71.1 °F 77% 29.84 in 10.0 mi SSW 5.8 mph - N/A   Clear